[[{"header":{"parameterUnit":"m.s-1","parameterCategory":1,"la1":30.2991,"la2":30.254,"lo1":-89.0895,"lo2":-89.0444,"dy":0.0017,"dx":0.0017,"nx":28,"ny":28,"refTime":"2025-02-04T09:00:00:Z","depth":0,"parameterNumber":2,"parameterNumberName":"U-component_of_WINDS"},"data":[0,0,0,0,0,0,0,0,0,0,0,0,0,0,0,0,0,0,0,0,0,0,0,0,0,0,0,0,0,0,0,0,0,0,0,0,0,0,0,0,0,0,0,0,0,0,0,0,0,0,0,0,0,0,0,0,0,0,-1.5665,-1.5665,0,-1.5682,-1.5683,-1.5683,-1.5658,-1.5657,-1.5656,-1.5655,-1.5674,-1.5675,-1.5676,0,0,0,0,0,0,0,0,0,0,0,0,0,-1.561,-1.5611,-1.5665,-1.5665,-1.5665,-1.5682,-1.5683,-1.5683,-1.5658,-1.5657,-1.5656,-1.5655,-1.5673,-1.5675,-1.5677,0,0,0,0,0,0,0,0,0,0,0,0,0,-1.5632,-1.5612,-1.5665,-1.5655,-1.5654,-1.5682,-1.5683,-1.5683,-1.5658,-1.5657,-1.5655,-1.5654,-1.5673,-1.5675,-1.5677,-1.5716,0,0,-1.5683,-1.5684,0,0,0,0,0,0,0,0,-1.563,-1.5634,-1.5656,-1.5655,-1.5655,-1.5666,-1.567,-1.5694,-1.5658,-1.5657,-1.5655,-1.5654,-1.5673,-1.5674,-1.5681,-1.5717,-1.5717,-1.5683,-1.5684,-1.5685,-1.5686,0,0,0,0,0,0,0,-1.5629,-1.5633,-1.5672,-1.5656,-1.5656,-1.565,-1.5651,-1.5675,-1.5672,-1.5657,-1.5655,-1.5657,-1.5672,-1.5679,-1.5681,-1.5718,-1.5683,-1.5685,-1.5686,-1.5687,-1.5786,-1.5788,0,0,0,0,0,0,-1.5629,-1.5632,-1.5671,-1.5672,-1.5639,-1.5652,-1.5654,-1.5664,-1.5672,-1.5671,-1.5658,-1.5656,-1.5676,-1.5679,-1.5682,-1.5727,-1.5685,-1.5687,-1.5688,-1.5785,-1.5786,-1.5788,0,0,0,0,0,0,-1.5627,-1.5632,-1.567,-1.5651,-1.5656,-1.5654,-1.5666,-1.5665,-1.5672,-1.5673,-1.5672,-1.5666,-1.5675,-1.5679,-1.5707,-1.5727,-1.5688,-1.569,-1.5783,-1.5785,-1.5787,-1.5818,0,0,0,0,0,0,-1.5626,-1.5632,-1.5647,-1.5652,-1.5657,-1.5696,-1.5667,-1.5666,-1.5675,-1.5672,-1.568,-1.568,-1.5674,-1.5704,-1.5709,-1.5729,-1.5691,-1.5781,-1.5784,-1.5787,-1.5815,-1.5821,-1.5826,0,0,0,0,0,-1.5624,-1.5655,-1.5647,-1.5652,-1.5675,-1.5697,-1.57,-1.5693,-1.5677,-1.5692,-1.5692,-1.5679,-1.5725,-1.5708,-1.5713,-1.5734,-1.578,-1.5783,-1.5786,-1.5813,-1.582,-1.5826,0,0,0,0,0,0,-1.5652,-1.5655,-1.5647,-1.568,-1.5688,-1.5692,-1.571,-1.5701,-1.5713,-1.571,-1.5702,-1.5703,-1.5734,-1.5737,-1.5718,-1.5772,-1.575,-1.5754,-1.5768,-1.5775,-1.578,-1.5778,-1.5693,0,0,0,0,0,-1.5662,-1.5679,-1.5681,-1.571,-1.5715,-1.5712,-1.5721,-1.5716,-1.5724,-1.5727,-1.573,-1.5738,-1.5754,-1.5765,-1.578,-1.5816,-1.5817,-1.5833,-1.5839,-1.5843,-1.5847,-1.5865,-1.5872,-1.5799,-1.5799,-1.5799,0,0,-1.5682,-1.5686,-1.5698,-1.5716,-1.5721,-1.5739,-1.5715,-1.5735,-1.5748,-1.573,-1.5757,-1.5759,-1.5768,-1.5801,-1.5815,-1.5804,-1.5867,-1.5847,-1.5851,-1.5852,-1.5869,-1.5876,-1.5883,-1.5801,-1.5801,-1.58,0,0,-1.5729,-1.5734,-1.5758,-1.5765,-1.5773,-1.5771,-1.5778,-1.5783,-1.5784,-1.5811,-1.5797,-1.5814,-1.5842,-1.5848,-1.5855,-1.5906,-1.5894,-1.5911,-1.5938,-1.5957,-1.5963,-1.5968,-1.5984,-1.5991,-1.5915,-1.5915,-1.5915,0,-1.5753,-1.5779,-1.5772,-1.5793,-1.5801,-1.5786,-1.581,-1.5817,-1.5831,-1.5837,-1.5824,-1.5859,-1.5864,-1.5898,-1.591,-1.5917,-1.5923,-1.5909,-1.5962,-1.5967,-1.5972,-1.5988,-1.5994,-1.5917,-1.5917,-1.5916,-1.5916,0,-1.5808,-1.5827,-1.5846,-1.5859,-1.5869,-1.5892,-1.5889,-1.5901,-1.5894,-1.5894,-1.5921,-1.5927,-1.5943,-1.5951,-1.5945,-1.5984,-1.5976,-1.5964,-1.5941,-1.5981,-1.5996,-1.6002,-1.5919,-1.5919,-1.5918,-1.5918,0,0,-1.5871,-1.588,-1.5887,-1.5892,-1.5902,-1.5916,-1.5938,-1.5953,-1.5963,-1.5974,-1.5992,-1.6016,-1.6005,-1.6013,-1.6008,-1.6025,-1.6063,-1.601,-1.601,-1.6018,-1.6105,-1.6113,-1.612,-1.6056,-1.6057,-1.6058,-1.6103,0,-1.5916,-1.5954,-1.5949,-1.5985,-1.6002,-1.5988,-1.6008,-1.6016,-1.6016,-1.6031,-1.6032,-1.6049,-1.6033,-1.6037,-1.6053,-1.6055,-1.608,-1.6052,-1.6072,-1.6073,-1.6068,-1.6128,-1.6137,-1.6179,-1.6109,-1.611,-1.6111,0,-1.5973,-1.5985,-1.6023,-1.603,-1.6036,-1.6054,-1.6067,-1.6082,-1.6091,-1.609,-1.61,-1.6092,-1.6115,-1.6093,-1.6124,-1.6105,-1.6114,-1.6116,-1.6117,-1.6117,-1.6093,-1.6128,-1.6193,-1.6198,-1.612,-1.6119,-1.6119,0,-1.6013,-1.6039,-1.6065,-1.6071,-1.6079,-1.6091,-1.6096,-1.6103,-1.6113,-1.6125,-1.6131,-1.6146,-1.6154,-1.6166,-1.6162,-1.6147,-1.6194,-1.6172,-1.6193,-1.6193,-1.6202,-1.6201,-1.6267,-1.6211,-1.621,-1.621,-1.621,0,-1.6063,-1.6087,-1.6083,-1.6099,-1.6125,-1.6119,-1.6145,-1.6148,-1.6155,-1.6171,-1.6161,-1.6177,-1.6172,-1.6187,-1.6185,-1.6211,-1.6215,-1.6215,-1.6213,-1.6215,-1.6214,-1.6218,-1.6215,-1.6212,-1.6212,-1.6211,-1.6211,0,-1.6112,-1.611,-1.6137,-1.6143,-1.6145,-1.6164,-1.6169,-1.6184,-1.6185,-1.6205,-1.621,-1.621,-1.6228,-1.6227,-1.6247,-1.6245,-1.6276,-1.6273,-1.6273,-1.6271,-1.6292,-1.6289,-1.6361,-1.637,-1.631,-1.631,-1.6311,0,-1.6143,-1.616,-1.6168,-1.6178,-1.6183,-1.6199,-1.6209,-1.6204,-1.6215,-1.6227,-1.624,-1.6257,-1.627,-1.6299,-1.6301,-1.6317,-1.6312,-1.6336,-1.6314,-1.6315,-1.6311,-1.6309,-1.631,-1.634,-1.6341,-1.6341,-1.6342,0,-1.6197,-1.6196,-1.621,-1.6223,-1.6235,-1.6246,-1.6256,-1.6265,-1.6261,-1.6274,-1.6291,-1.6302,-1.6322,-1.6339,-1.6353,-1.6358,-1.6349,-1.6349,-1.6354,-1.6355,-1.6354,-1.6353,-1.6283,-1.6347,-1.6346,-1.6346,-1.6346,-1.6346,-1.6237,-1.6251,-1.6259,-1.6275,-1.6282,-1.6292,-1.6306,-1.6308,-1.6323,-1.6338,-1.6336,-1.6355,-1.6364,-1.6383,-1.6389,-1.6405,-1.6396,-1.6405,-1.6406,-1.6408,-1.6409,-1.6353,-1.6408,-1.6408,-1.6408,-1.6408,-1.6408,0,-1.6289,-1.6294,-1.6309,-1.6322,-1.6335,-1.6326,-1.6337,-1.6348,-1.6365,-1.6375,-1.6388,-1.6408,-1.6424,-1.6429,-1.6444,-1.6456,-1.6452,-1.646,-1.6458,-1.6459,-1.6417,-1.641,-1.6463,-1.6463,-1.6463,-1.6463,-1.6463,-1.6463,-1.6318,-1.6342,-1.6342,-1.637,-1.6374,-1.6393,-1.64,-1.6409,-1.6416,-1.6439,-1.6452,-1.6455,-1.6462,-1.6478,-1.6493,-1.6494,-1.65,-1.6509,-1.6508,-1.6468,-1.6462,-1.6457,-1.645,-1.651,-1.651,-1.6548,-1.6549,-1.6549]},{"header":{"parameterUnit":"m.s-1","parameterCategory":1,"la1":30.2991,"la2":30.254,"lo1":-89.0895,"lo2":-89.0444,"dy":0.0017,"dx":0.0017,"nx":28,"ny":28,"refTime":"2025-02-04T09:00:00:Z","depth":0,"parameterNumber":3,"parameterNumberName":"V-component_of_WINDS"},"data":[0,0,0,0,0,0,0,0,0,0,0,0,0,0,0,0,0,0,0,0,0,0,0,0,0,0,0,0,0,0,0,0,0,0,0,0,0,0,0,0,0,0,0,0,0,0,0,0,0,0,0,0,0,0,0,0,0,0,1.6728,1.6728,0,1.6759,1.6759,1.676,1.6754,1.6753,1.6752,1.6752,1.6782,1.6784,1.6785,0,0,0,0,0,0,0,0,0,0,0,0,0,1.6664,1.6665,1.6728,1.6728,1.6729,1.6759,1.6759,1.676,1.6754,1.6753,1.6752,1.6752,1.6782,1.6783,1.6785,0,0,0,0,0,0,0,0,0,0,0,0,0,1.6693,1.6665,1.6728,1.6729,1.673,1.6759,1.6759,1.676,1.6754,1.6753,1.6752,1.6751,1.6781,1.6783,1.6785,1.6814,0,0,1.6791,1.6792,0,0,0,0,0,0,0,0,1.6691,1.6695,1.6729,1.6729,1.673,1.6752,1.6748,1.6778,1.6754,1.6745,1.6752,1.6751,1.6773,1.6775,1.6783,1.6816,1.6817,1.6791,1.6793,1.6794,1.6794,0,0,0,0,0,0,0,1.6689,1.6694,1.674,1.6729,1.673,1.6729,1.6732,1.6754,1.6763,1.6745,1.6745,1.6749,1.6773,1.6781,1.6784,1.6817,1.6791,1.6793,1.6794,1.6795,1.6878,1.6879,0,0,0,0,0,0,1.6687,1.6692,1.6739,1.6741,1.6708,1.673,1.6734,1.6745,1.6763,1.6765,1.675,1.6748,1.6778,1.6781,1.6785,1.6822,1.6794,1.6795,1.6797,1.6877,1.6878,1.688,0,0,0,0,0,0,1.6685,1.6691,1.6738,1.6717,1.6723,1.6732,1.6745,1.6746,1.6755,1.6766,1.6767,1.6756,1.6777,1.6782,1.6808,1.6823,1.6796,1.6798,1.6876,1.6878,1.6879,1.6895,0,0,0,0,0,0,1.6684,1.6691,1.6702,1.6717,1.6724,1.6761,1.6746,1.6748,1.6758,1.6757,1.6773,1.6774,1.6777,1.6805,1.681,1.6825,1.68,1.6875,1.6877,1.6879,1.6894,1.6897,1.69,0,0,0,0,0,1.6681,1.6704,1.6702,1.6708,1.6738,1.6761,1.6765,1.6768,1.6759,1.6771,1.6778,1.6774,1.682,1.6807,1.6813,1.6829,1.6874,1.6876,1.6878,1.6892,1.6897,1.69,0,0,0,0,0,0,1.6689,1.6706,1.6704,1.6732,1.6746,1.676,1.6775,1.6773,1.6788,1.6787,1.6789,1.6793,1.682,1.6827,1.6812,1.6859,1.6846,1.6849,1.6854,1.6859,1.6862,1.686,1.6801,0,0,0,0,0,1.6694,1.6712,1.6726,1.675,1.6757,1.6765,1.6775,1.6777,1.679,1.6795,1.6805,1.6818,1.6836,1.6847,1.6864,1.6894,1.6898,1.6908,1.6911,1.6914,1.6918,1.6937,1.6942,1.6887,1.6887,1.6887,0,0,1.6705,1.6716,1.6727,1.6752,1.6762,1.6781,1.6769,1.6789,1.6804,1.6798,1.6824,1.6831,1.6846,1.6875,1.6888,1.6882,1.6934,1.6917,1.6919,1.6921,1.6939,1.6945,1.6949,1.6889,1.6888,1.6888,0,0,1.6735,1.6744,1.6767,1.6778,1.6794,1.68,1.6805,1.682,1.6825,1.6851,1.6848,1.6865,1.6895,1.6907,1.6917,1.6953,1.695,1.6958,1.6976,1.6995,1.6999,1.7003,1.7018,1.7023,1.6961,1.6961,1.6961,0,1.6746,1.6775,1.6778,1.6799,1.6811,1.6808,1.6831,1.6841,1.6862,1.687,1.6862,1.6902,1.6911,1.6944,1.6953,1.696,1.6967,1.6957,1.6998,1.7002,1.7006,1.702,1.7025,1.6962,1.6962,1.6962,1.6962,0,1.6789,1.6809,1.6825,1.6847,1.686,1.6881,1.6889,1.6901,1.6902,1.6909,1.6936,1.6948,1.6968,1.6975,1.6975,1.7009,1.7005,1.6997,1.6984,1.7012,1.7026,1.7031,1.6963,1.6963,1.6963,1.6963,0,0,1.6824,1.6849,1.6855,1.6866,1.6884,1.69,1.6922,1.6943,1.6955,1.6969,1.6989,1.7015,1.701,1.7021,1.7022,1.7038,1.7069,1.7029,1.703,1.7038,1.7109,1.7115,1.7122,1.7066,1.7067,1.7068,1.7108,0,1.6857,1.6898,1.6902,1.6938,1.6958,1.6956,1.6976,1.6989,1.6996,1.7014,1.7021,1.7041,1.703,1.7038,1.7053,1.7062,1.7083,1.7058,1.7086,1.7087,1.7084,1.7128,1.7135,1.7172,1.7113,1.7114,1.7115,0,1.6901,1.6919,1.6958,1.6976,1.6984,1.7002,1.7022,1.7039,1.7055,1.7059,1.7072,1.7072,1.7096,1.7081,1.7114,1.7098,1.7109,1.7115,1.7116,1.712,1.7104,1.7135,1.7184,1.719,1.7123,1.7122,1.7121,0,1.6926,1.6959,1.6987,1.6996,1.7017,1.703,1.7039,1.7055,1.7068,1.7085,1.7094,1.7113,1.7125,1.714,1.7146,1.7134,1.718,1.7164,1.7185,1.7185,1.7196,1.7195,1.7249,1.72,1.72,1.72,1.72,0,1.6964,1.6988,1.6999,1.7017,1.7044,1.7049,1.7076,1.7084,1.7098,1.7118,1.7116,1.7135,1.714,1.7159,1.7163,1.7192,1.7196,1.7201,1.7202,1.7202,1.7202,1.7211,1.7209,1.7201,1.7201,1.72,1.72,0,1.6997,1.7005,1.7036,1.7054,1.7059,1.7079,1.7094,1.7111,1.7118,1.7143,1.7149,1.716,1.7183,1.719,1.7217,1.722,1.7254,1.7252,1.7249,1.725,1.7271,1.7269,1.7333,1.7343,1.7286,1.7286,1.7286,0,1.7021,1.704,1.7061,1.7074,1.7085,1.7106,1.712,1.7125,1.7139,1.716,1.7175,1.7198,1.7217,1.7254,1.7264,1.7285,1.7285,1.7306,1.7288,1.7288,1.7288,1.7288,1.7291,1.731,1.731,1.7311,1.7311,0,1.7065,1.7068,1.7088,1.7111,1.7127,1.7145,1.7161,1.7172,1.718,1.7196,1.7221,1.7235,1.7264,1.7287,1.7309,1.7319,1.7317,1.7316,1.7323,1.7324,1.7323,1.7326,1.726,1.7315,1.7315,1.7314,1.7314,1.7314,1.7095,1.7113,1.7131,1.7154,1.7168,1.7184,1.7202,1.7212,1.7232,1.7257,1.7258,1.7285,1.7302,1.7332,1.7342,1.7364,1.7358,1.7366,1.7369,1.7371,1.7374,1.7318,1.7367,1.7367,1.7367,1.7367,1.7367,0,1.7141,1.7153,1.7174,1.7198,1.7217,1.7213,1.7232,1.7248,1.7272,1.7288,1.7307,1.7336,1.7359,1.7372,1.7395,1.741,1.7409,1.7416,1.7416,1.7418,1.7377,1.737,1.7416,1.7416,1.7416,1.7416,1.7416,1.7416,1.7167,1.7197,1.7203,1.7241,1.7252,1.728,1.7291,1.7306,1.732,1.7352,1.7372,1.738,1.7396,1.742,1.7442,1.7445,1.7454,1.7462,1.7464,1.7426,1.7421,1.7416,1.741,1.7463,1.7463,1.7504,1.7505,1.7505]}]]